Preview of NWS' New Version of Forecast
This preview is not operational and should not be used for support decisions.

Regional Weather Roundup (RWR)

Issued by National Weather Service (NWS)

                            
000
ASUS42 KTBW 231716
RWRFL 
FLORIDA REGIONAL WEATHER ROUNDUP
NATIONAL WEATHER SERVICE TAMPA BAY RUSKIN FL
100 PM EDT TUE APR 23 2019

NOTE: "FAIR" INDICATES FEW OR NO CLOUDS BELOW 12,000 FEET WITH NO
SIGNIFICANT WEATHER AND/OR OBSTRUCTIONS TO VISIBILITY.

FLZ001>010-012>015-112-114-115-231800-
PANHANDLE FLORIDA
  
CITY           SKY/WX    TMP DP  RH WIND       PRES   REMARKS
PENSACOLA      FAIR      79  47  32 S10       30.15S                  
PENSACOLA NAS  PTSUNNY   78  45  30 SE13      30.15S                  
MILTON NAS     PTSUNNY   80  51  36 SE9       30.15F                  
CRESTVIEW      FAIR      81  46  29 SE7       30.16F                  
DUKE FIELD     FAIR      80  46  29 S7        30.14F                  
VALPARAISO     FAIR      79  45  29 S8        30.15S                  
MARY ESTHER    MOSUNNY   80  49  34 S7        30.14F                  
TRI COUNTY     FAIR      80  50  34 VRB5      30.16                   
PANAMA CITY    FAIR      80  49  33 S12       30.15F                  
TYNDALL AFB    FAIR      80  44  27 SW6       30.15F                  
APALACHICOLA   FAIR      76  49  38 S7        30.16S                  

STATION/POSITION SKY/WX   TEMP    WIND        PRES    WAVE   SWELL
                          AIR SEA DIR/SP/G            HT/PER HT/PER
                          (F)     (DEG/KT/KT) (MB)    (FT/S) (FT/S)
30.1N   87.6W                                   N/A     1
29.2N   88.2W                     100/ 10/ 14 1021.0F   1/ 4
PANAMA CITY BEAC           72 68  240/  2/  4 1021.6F
TOWER C          NOT AVBL

$$
FLZ011-016>038-118-127-128-134-139-239-231800-
NORTH FLORIDA
  
CITY           SKY/WX    TMP DP  RH WIND       PRES   REMARKS
MARIANNA       FAIR      80  52  37 S6        30.14F                  
TALLAHASSEE    PTSUNNY   82  51  34 VRB3      30.13F                  
PERRY          FAIR      82  51  34 CALM      30.15F                  
LIVE OAK       SUNNY     82  48  30 CALM      30.14F                  
CROSS CITY     FAIR      81  51  34 S5        30.14F                  
LAKE CITY      FAIR      81  50  34 CALM      30.15F                  
GAINESVILLE    FAIR      82  50  32 VRB3      30.17F                  
PALATKA        FAIR     N/A N/A N/A E7        30.15S                  
MAYPORT NAS    FAIR      79  55  43 SE8       30.15F                  
JACKSONVILLE   FAIR      81  49  32 CALM      30.13F                  
JAX NAS        FAIR      80  45  28 VRB5      30.15F                  
JAX CECIL      SUNNY     88  48  25 VRB6      30.14F                  
FERNANDINA BEA FAIR      77  59  54 SE7       30.15S                  
ST AUGUSTINE   FAIR      77  59  53 E9        30.16F                  
PALM COAST     SUNNY     81  54  39 NE7       30.14F                  

STATION/POSITION SKY/WX   TEMP    WIND        PRES    WAVE   SWELL
                          AIR SEA DIR/SP/G            HT/PER HT/PER
                          (F)     (DEG/KT/KT) (MB)    (FT/S) (FT/S)
SHELL POINT      NOT AVBL
KEATON BEACH               70     230/  6/  6 1021.2F
CEDAR KEY                  70     170/  4/  5 1021.2F
FERNANDINA                 82 68  140/  5/  9 1021.5F
30.7N   81.3W                 71                N/A     2/ 9
MAYPORT                    75 70   80/  7/  8 1021.0F
31.4N   80.9W              68 69  210/  8/ 10 1020.9F   3/ 9   3/ 9
ST AUGUSTINE               72 74  100/  5/  6 1021.2F

$$
FLZ040-043>046-052-053-057-058-063-144-231800-
INTERIOR CENTRAL FLORIDA
  
CITY           SKY/WX    TMP DP  RH WIND       PRES   REMARKS
OCALA          FAIR      79  49  34 CALM      30.15F                  
LEESBURG       FAIR      78  50  37 CALM      30.15F                  
SANFORD        FAIR      80  57  45 MISG      30.13F                  
ORLANDO EXEC   FAIR      81  53  37 CALM      30.13F                  
ORLANDO INTL   FAIR      78  55  44 SW6       30.13F                  
KISSIMMEE      FAIR      79  58  48 VRB7      30.14F                  
WINTER HAVEN   FAIR      82  52  35 VRB3      30.15F                  
LAKELAND       SUNNY     79  50  36 E8        30.15F                  
SEBRING        FAIR      80  59  48 NE5       30.13F                  
OKEECHOBEE     PTSUNNY   79  57  47 N7        30.11F                  

$$
FLZ041-047-054-059-064-141-147-231800-
EAST CENTRAL FLORIDA
  
CITY           SKY/WX    TMP DP  RH WIND       PRES   REMARKS
ORMOND BEACH   SUNNY     77  55  47 NE5       30.14F                  
DAYTONA BEACH  FAIR      80  56  43 NE6       30.14F                  
DELAND         FAIR      79  55  44 E10       30.13F                  
NEW SMYRNA BEA MOSUNNY   77  57  50 E9        30.16F                  
JFK SPACE CTR  PTSUNNY   78  60  54 N8        30.12F                  
TITUSVILLE     MOSUNNY   81  55  41 VRB5      30.14F                  
CAPE CANAVERAL FAIR      79  56  44 NE6       30.12F                  
PATRICK AFB    FAIR      78  60  53 CALM      30.13F                  
MELBOURNE      FAIR      79  60  52 E7        30.13F                  
VERO BEACH     FAIR      79  57  46 VRB3      30.13F                  
FT PIERCE      PTSUNNY   78  57  48 VRB7      30.12F                  
STUART         MOSUNNY   77  55  47 E7        30.14S                  

STATION/POSITION SKY/WX   TEMP    WIND        PRES    WAVE   SWELL
                          AIR SEA DIR/SP/G            HT/PER HT/PER
                          (F)     (DEG/KT/KT) (MB)    (FT/S) (FT/S)
28.5N   80.2W              73     340/ 10/ 12 1020.7
28.9N   78.5W              72 78  360/  6/ 10 1020.8F   4/ 9   3/ 9
TRIDENT PIER               78 76  100/  7/ 10 1021.6F
28.4N   80.5W                 76                N/A     2/ 9
27.5N   80.2W                 75                N/A     2/ 8

$$
FLZ050-056-061-142-242-148-248-149-249-151-251-155-255-
160-260-231800-
WEST CENTRAL FLORIDA
  
CITY           SKY/WX    TMP DP  RH WIND       PRES   REMARKS
CRYSTAL RIVER  FAIR      79  55  44 W5        30.14F                  
INVERNESS      FAIR      79  52  38 CALM      30.15F HAZE             
BROOKSVILLE    FAIR      83  53  35 VRB5      30.14F                  
CLEARWATER AIR FAIR      77  50  38 S5        30.13F                  
ST PETE CLEARW FAIR      79  50  36 NE5       30.13F                  
TAMPA INTL     FAIR      79  55  43 W6        30.13F                  
TAMPA EXEC     FAIR      81  54  39 NE5       30.14F                  
PLANT CITY     FAIR      81  50  34 E5        30.15F                  
MACDILL AFB    FAIR      78  55  43 NW5       30.13F                  
PETER O KNIGHT PTSUNNY   81  55  41 SW6       30.13F                  
ST PETERSBURG  FAIR      73  59  61 E9        30.12F                  
SARASOTA       FAIR      82  52  35 VRB6      30.11F                  
VENICE         FAIR      84  52  32 NE10G17   30.13F                  

STATION/POSITION SKY/WX   TEMP    WIND        PRES    WAVE   SWELL
                          AIR SEA DIR/SP/G            HT/PER HT/PER
                          (F)     (DEG/KT/KT) (MB)    (FT/S) (FT/S)
27.3N   84.2W                 75                N/A     2/ 4
CLEARWATER BEACH           72 73  270/  6/  7 1020.7F
MIDDLE TAMPA BAY           73      20/ 10/ 11 1020.5F
VENICE                     78 75  100/  6/  9 1019.8F

$$
FLZ066-069-070-075>078-162-262-165-265-231800-
SOUTHWEST FLORIDA AND KEYS
  
CITY           SKY/WX    TMP DP  RH WIND       PRES   REMARKS
PUNTA GORDA    FAIR      80  53  39 SE7       30.13F                  
FT MYERS       FAIR      80  56  43 E8        30.11F                  
SOUTHWEST INTL FAIR      80  56  43 NE12G21   30.11F                  
NAPLES         FAIR      80  61  52 VRB7      30.10F                  
MARCO ISLAND   FAIR      82  57  42 NE9       30.11F                  
IMMOKALEE      PTSUNNY   82  59  44 E9        30.09F                  
MARATHON       FAIR      83  57  41 NE14      30.09F                  
KEY WEST NAS   PTSUNNY   82  61  48 E13       30.08F                  
KEY WEST INTL  FAIR      79  61  53 E7        30.09F                  

STATION/POSITION SKY/WX   TEMP    WIND        PRES    WAVE   SWELL
                          AIR SEA DIR/SP/G            HT/PER HT/PER
                          (F)     (DEG/KT/KT) (MB)    (FT/S) (FT/S)
NAPLES                     79 76   70/  6/ 10 1019.4F
DRY TORTUGAS               76      80/ 11/ 13 1019.2F
SAND KEY                   75                 1018.9F
SOMBRERO KEY               75                 1018.3F

$$
FLZ067-068-071>074-168-172>174-231800-
SOUTHEAST FLORIDA 
  
CITY           SKY/WX    TMP DP  RH WIND       PRES   REMARKS
W PALM BEACH   FAIR      80  59  48 NE15      30.12S                  
BOCA RATON     MOSUNNY   82  59  44 E13G22    30.11F                  
FT LAUDER-EXEC FAIR      80  58  46 E13G22    30.10F                  
FT LAUDERDALE  PTSUNNY   77  60  55 NE12      30.10S                  
POMPANO BEACH  FAIR      81  58  45 NE13      30.11S                  
PEMBROKE PINES FAIR      81  57  43 E13       30.12S                  
OPA LOCKA      FAIR      81  58  45 VRB7      30.11S                  
MIAMI          PTSUNNY   81  59  47 NE10G22   30.10F                  
WEST KENDALL   FAIR      81  60  48 E8G17     30.09F                  
HOMESTEAD      FAIR      79  60  52 NE12G18   30.09F                  

STATION/POSITION SKY/WX   TEMP    WIND        PRES    WAVE   SWELL
                          AIR SEA DIR/SP/G            HT/PER HT/PER
                          (F)     (DEG/KT/KT) (MB)    (FT/S) (FT/S)
PORT EVERGLADES            76      60/ 10/ 13 1019.7
VIRGINIA KEY               76 79   60/  9/ 11 1018.8F
LAKE WORTH                 74 77   40/  9/ 14 1020.9F
SETTLEMENT POINT           73      30/ 10/ 12 1019.9F

$$